Blythe, CA

1:15 AM PDT on May 27, 2017 (GMT -0700)
Blythe

Weather History for KBLH - May, 2013

Change the Weather History Date:

Thursday, May 16, 2013

  Actual Average Record
Temperature  
Mean Temperature 84 °F -  
Max Temperature 102 °F 94 °F 109 °F (1997)
Min Temperature 68 °F 64 °F 50 °F (2015)
Cooling Degree Days 19    
Growing Degree Days 34 (Base 50)    
Moisture  
Dew Point 38 °F    
Average Humidity 22    
Maximum Humidity 42    
Minimum Humidity 7    
Precipitation  
Precipitation 0.00 in - - ()
Sea Level Pressure  
Sea Level Pressure 29.72 in    
Wind  
Wind Speed 10 mph (SSW)    
Max Wind Speed 21 mph    
Max Gust Speed 28 mph    
Visibility 10 miles    
Events      
Averages and records for this station are not official NWS values.
T = Trace of Precipitation, MM = Missing Value Source: NWS Daily Summary

Daily Weather History Graph

Daily Weather History Graph

Search for Another Location

Airport or City:

Trip Planner

Search our weather history database for the weather conditions in past years. The results will help you decide how hot, cold, wet, or windy it might be!

Date:

Astronomy

May. 16, 2013 Rise Set
Actual Time 5:37 AM PDT 7:33 PM PDT
Civil Twilight 5:09 AM PDT 8:01 PM PDT
Nautical Twilight 4:36 AM PDT 8:34 PM PDT
Astronomical Twilight 4:00 AM PDT 9:10 PM PDT
Moon 11:09 AM PDT (5/16) 12:01 AM PDT (5/16)
Length of Visible Light 14h 51m
Length of Day
13h 56m
Waxing Crescent, 36% of the Moon is Illuminated
May 16
Waxing Crescent
May 17
First Quarter
May 24
Full
May 31
Last Quarter
Jun 8
New

Hourly Weather History & Observations

Time (PDT) Temp. Dew Point Humidity Pressure Visibility Wind Dir Wind Speed Gust Speed Precip Events Conditions
12:52 AM 77.0 °F 48.0 °F 36% 29.74 in 10.0 mi South 9.2 mph - N/A   Clear
1:52 AM 78.1 °F 45.0 °F 31% 29.73 in 10.0 mi South 11.5 mph - N/A   Clear
2:52 AM 73.0 °F 45.0 °F 37% 29.74 in 10.0 mi East 3.5 mph - N/A   Clear
3:52 AM 72.0 °F 46.0 °F 40% 29.74 in 10.0 mi South 5.8 mph - N/A   Clear
4:52 AM 68.0 °F 44.1 °F 42% 29.75 in 10.0 mi Calm Calm - N/A   Clear
5:52 AM 71.1 °F 43.0 °F 36% 29.76 in 10.0 mi ESE 3.5 mph - N/A   Clear
6:52 AM 73.0 °F 41.0 °F 31% 29.78 in 10.0 mi Calm Calm - N/A   Clear
7:52 AM 75.9 °F 44.1 °F 32% 29.79 in 10.0 mi South 4.6 mph - N/A   Clear
8:52 AM 82.9 °F 44.1 °F 25% 29.78 in 10.0 mi South 11.5 mph - N/A   Clear
9:52 AM 86.0 °F 45.0 °F 24% 29.78 in 10.0 mi South 12.7 mph - N/A   Clear
10:52 AM 89.1 °F 46.0 °F 22% 29.78 in 10.0 mi SSE 13.8 mph - N/A   Clear
11:52 AM 93.0 °F 44.1 °F 18% 29.76 in 10.0 mi SSE 17.3 mph - N/A   Clear
12:52 PM 97.0 °F 39.0 °F 13% 29.73 in 10.0 mi South 12.7 mph 20.7 mph N/A   Clear
1:52 PM 99.0 °F 33.1 °F 10% 29.70 in 10.0 mi SSW 9.2 mph 24.2 mph N/A   Clear
2:52 PM 100.0 °F 24.1 °F 7% 29.68 in 10.0 mi WSW 18.4 mph 23.0 mph N/A   Clear
3:52 PM 100.9 °F 26.1 °F 7% 29.65 in 10.0 mi SW 18.4 mph 27.6 mph N/A   Clear
4:52 PM 100.9 °F 28.9 °F 8% 29.64 in 10.0 mi SSW 13.8 mph 27.6 mph N/A   Clear
5:52 PM 99.0 °F 27.0 °F 8% 29.63 in 10.0 mi WSW 20.7 mph 25.3 mph N/A   Clear
6:52 PM 97.0 °F 26.1 °F 8% 29.62 in 10.0 mi WSW 16.1 mph 25.3 mph N/A   Clear
7:52 PM 93.0 °F 27.0 °F 9% 29.64 in 10.0 mi SW 13.8 mph - N/A   Clear
8:52 PM 89.1 °F 35.1 °F 15% 29.66 in 10.0 mi WSW 13.8 mph - N/A   Clear
9:52 PM 86.0 °F 37.9 °F 18% 29.69 in 10.0 mi SSW 15.0 mph - N/A   Clear
10:52 PM 82.0 °F 41.0 °F 23% 29.70 in 10.0 mi South 15.0 mph - N/A   Clear
11:52 PM 78.1 °F 39.0 °F 25% 29.70 in 10.0 mi South 15.0 mph - N/A   Clear